Regional Weather Roundup
Issued by NWS

Home | Current Version | Previous Version | Text Only | Print | Product List | Glossary On
Versions: 1 2 3 4 5 6 7 8 9 10 11 12 13 14 15 16 17 18 19 20 21 22 23 24 25 26 27 28 29 30 31 32 33 34 35 36 37 38 39 40 41 42 43 44 45 46 47 48 49 50
000
ASUS43 KDTX 310710
RWRMI
MICHIGAN HOURLY REGIONAL WEATHER ROUNDUP
NATIONAL WEATHER SERVICE DETROIT/PONTIAC MI
300 AM EDT SUN AUG 31 2014

NOTE: "FAIR" INDICATES FEW OR NO CLOUDS BELOW 12,000 FEET WITH NO
SIGNIFICANT WEATHER AND/OR OBSTRUCTION TO VISIBILITY.

MIZ047>049-052>055-059>063-066>070-074>076-081>083-310800-
SOUTHEAST LOWER MICHIGAN

CITY           SKY/WX    TMP DP  RH WIND       PRES   REMARKS
ADRIAN         CLOUDY    71  67  87 CALM      29.97S
ALMA           MOCLDY    69  66  91 SW7       29.91S
BAD AXE        CLOUDY    70  70 100 SW8       29.88S
DETROIT CITY   CLOUDY    78  68  71 W9        29.92S
DETROIT        LGT RAIN  74  65  73 SW13G20   29.94S
FLINT          CLOUDY    72  67  84 SW8       29.92S
GROSSE ILE     CLOUDY    75  70  83 SW9       29.93R
HILLSDALE      LGT RAIN  69  69 100 W3        29.98S
HOWELL         CLOUDY    67  66  94 SW7       29.94S

CITY           SKY/WX    TMP DP  RH WIND       PRES   REMARKS
JACKSON        CLOUDY    69  67  93 SW7       29.95F
LAMBERTVILLE   CLOUDY    75  68  78 SW9       29.96S
LANSING        CLOUDY    68  65  90 SW8       29.93S
LAPEER         NOT AVBL
MASON          CLOUDY    67  65  93 SW5       29.94S
MONROE         CLOUDY    75  70  83 W8        29.94S
MT. CLEMENS    CLOUDY    75  67  76 SW12      29.91S
PONTIAC        LGT RAIN  71  68  90 W5        29.93S
PORT HOPE        N/A     71  67  87 SW8       29.85S
PORT HURON     CLOUDY    72  70  94 SW3       29.91S
TRI CITIES     MOCLDY    71  68  90 SW8       29.90R
YPSILANTI      CLOUDY    75  64  68 SW9       29.94F
$$
MIZ043>046-050>051-056>058-064>065-071>073-077>080-310800-
SOUTHWEST LOWER MICHIGAN

CITY           SKY/WX    TMP DP  RH WIND       PRES   REMARKS
BATTLE CREEK   CLOUDY    69  67  93 S7        29.94F
BENTON HARBOR  MOCLDY    69  67  93 SW3       29.91F
BIG RAPIDS     CLOUDY    67  66  96 W3        29.90S
COLDWATER      CLOUDY    69  68  96 CALM      29.96S
HOLLAND        MOCLDY    69  67  93 SE3       29.92S
GRAND RAPIDS   CLOUDY    71  71 100 SW6       29.92S
KALAMAZOO      CLOUDY    70  67  90 S6        29.94S
MARSHALL       CLOUDY    68  67  98 CALM      29.94F
MUSKEGON       MOCLDY    67  65  93 NW5       29.91S
$$
MIZ016>042-310800-
NORTHERN LOWER MICHIGAN

CITY           SKY/WX    TMP DP  RH WIND       PRES   REMARKS
ALPENA         LGT RAIN  66  64  93 W5        29.82S
BEAVER ISLAND  CLOUDY    61  60  97 W7        29.85S
BELLAIRE       CLOUDY    64  61  90 W6        29.87S
CADILLAC       CLOUDY    63  63  99 W7        29.90S
CHARLEVOIX     CLOUDY    64  64 100 W9        29.88S
FRANKFORT      CLOUDY    66  60  82 CALM      29.89R
GAYLORD        CLOUDY    62  61  96 W12       29.87R
GRAYLING       CLOUDY    64  64  99 W7        29.88S
HARBOR SPRINGS DRIZZLE   63  62  96 W6        29.84S
HOUGHTON LAKE  CLOUDY    66  63  90 W10       29.89R
MANISTEE       CLOUDY    64  61  88 CALM      29.90S
OSCODA         CLOUDY    67  66  95 SW9       29.84S
PELLSTON       LGT RAIN  62  61  96 W10       29.84R
TRAVERSE CITY  CLOUDY    66  60  81 W9        29.86S
$$
MIZ007>008-015-310800-
EASTERN UPPER MICHIGAN

CITY           SKY/WX    TMP DP  RH WIND       PRES   REMARKS
KINROSS        CLOUDY    63  63 100 W10       29.79R
MACKINAC ISLAN FOG       61  61 100 W13       29.81R VSB 1
NEWBERRY       CLOUDY    58  57  99 NW7       29.83R
S. S. MARIE    CLOUDY    63  62  97 NW3       29.78R
$$
MIZ004>006-011>014-085-310800-
CENTRAL UPPER MICHIGAN

CITY           SKY/WX    TMP DP  RH WIND       PRES   REMARKS
MANISTIQUE     RAIN      58  58  99 N7        29.84S
ESCANABA       CLOUDY    61  55  82 NW3       29.87S
MENOMINEE      MOCLDY    59  55  88 CALM      29.88S
SAWYER-GWINN   CLOUDY    58  57  97 N8        29.89S FOG
$$
MIZ001>003-009>011-084-310800-
WESTERN UPPER MICHIGAN

CITY           SKY/WX    TMP DP  RH WIND       PRES   REMARKS
IRON MOUNTAIN  CLOUDY    58  56  93 NW5       29.89S
HOUGHTON       PTCLDY    55  53  93 W3        29.90S
COPPER HARBOR    N/A     56  53  90 NW3       29.90R
IRONWOOD       CLEAR     54  54 100 CALM      29.88F
$$

ABBREVIATIONS USED IN REMARKS
   TC - TEMPERATURE IN CELSIUS
  WCI - WIND CHILL INDEX
   HX - HEAT INDEX
  VSB - VISIBILITY



USA.gov is the U.S. government's official web portal to all federal, state and local government web resources and services.